Карточка аэропорта URWW

Внимание!
Информация на этой странице в стадии наполнения.
Если вы не увидели какой-то информации, или заметили неточность - пожалуйста сообщите нам!
Спасибо!
Команда RU-STAFF
Название аэропортаГумрак
Название аэропорта (англ.)Gumrak
Превышение482 ft. (146.9 m.)
Координаты48°46.95', 44°20.736'
Высота перехода3000 ft
Эшелон переходаFL40 (QNH >= 1013); FL50 (QNH 977-1012); FL60 (QNH < 977)
Коды ответчика1020-1027
Зона ОрВДРостов-на-Дону РПИ (URRV)
Данные METARURWW 150830Z 03004MPS 330V070 CAVOK 32/11 Q1012 R05/010070 NOSIG
Проноз погоды (TAF)URWW 150758Z 1509/1518 01003G10MPS 9999 SCT020 TEMPO 1509/1518 06003G12MPS BKN020 SCT030CB
NOTAMshow/hide NOTAM
AWOS   TABLE

Информация о ВПП

ВПП Длина ВПП (м.) Покрытие Курс ВПП Частота ILS
062800Асфальтобетон55111.7
242800Асфальтобетон235110.5

Диспетчерские позиции

Позывной Наименование органа УВД Частота
URWW_GNDВолгоград-Руление119.0
URWW_APPВолгоград-Подход125.3
URWW_TWRВолгоград-Вышка128.0



Спутниковое изображение